• In Deutschland
  • Länderverzeichnis
  • Für 7 Tage
  • Wassertemperatur
  • Satellitenkarten
  • Wetterkarte
  • Widgets
  • user-avatar
    Anmelden

    Stündliche Wetter Bremen

    Heute, 25 September, Dienstag

    Zeit Temperatur Niederschläge Wind Luftdruck Luftfeuchtigkeit
    00:00 +5°C° 0 mm 3 m/S 775 mmHg 85%
    01:00 +6°C° 0 mm 2 m/S 775 mmHg 88%
    02:00 +6°C° 0 mm 2 m/S 775 mmHg 89%
    03:00 +6°C° 0 mm 2 m/S 776 mmHg 90%
    04:00 +6°C° 0 mm 2 m/S 776 mmHg 90%
    05:00 +6°C° 0 mm 2 m/S 776 mmHg 90%
    06:00 +6°C° 0 mm 2 m/S 776 mmHg 90%
    07:00 +6°C° 0 mm 2 m/S 777 mmHg 88%
    08:00 +8°C° 0 mm 2 m/S 777 mmHg 81%
    09:00 +10°C° 0 mm 2 m/S 777 mmHg 73%
    10:00 +13°C° 0 mm 2 m/S 777 mmHg 66%
    11:00 +14°C° 0 mm 2 m/S 777 mmHg 61%
    12:00 +15°C° 0 mm 2 m/S 777 mmHg 56%
    13:00 +16°C° 0 mm 2 m/S 778 mmHg 53%
    14:00 +16°C° 0 mm 2 m/S 777 mmHg 53%
    15:00 +16°C° 0 mm 2 m/S 777 mmHg 53%
    16:00 +16°C° 0 mm 2 m/S 777 mmHg 53%
    17:00 +14°C° 0 mm 2 m/S 777 mmHg 60%
    18:00 +13°C° 0 mm 2 m/S 777 mmHg 67%
    19:00 +11°C° 0 mm 1 m/S 776 mmHg 73%
    20:00 +9°C° 0 mm 2 m/S 776 mmHg 76%
    21:00 +9°C° 0 mm 2 m/S 776 mmHg 78%
    22:00 +8°C° 0 mm 2 m/S 776 mmHg 80%
    23:00 +8°C° 0 mm 2 m/S 776 mmHg 80%

    Morgen, 26 September, Mittwoch

    Zeit Temperatur Niederschläge Wind Luftdruck Luftfeuchtigkeit
    00:00 +8°C° 0 mm 3 m/S 776 mmHg 80%
    01:00 +8°C° 0 mm 3 m/S 776 mmHg 79%
    02:00 +8°C° 0 mm 3 m/S 775 mmHg 77%
    03:00 +7°C° 0 mm 4 m/S 775 mmHg 75%
    04:00 +7°C° 0 mm 4 m/S 775 mmHg 72%
    05:00 +7°C° 0 mm 4 m/S 774 mmHg 71%
    06:00 +7°C° 0 mm 4 m/S 774 mmHg 70%
    07:00 +7°C° 0 mm 5 m/S 774 mmHg 69%
    08:00 +9°C° 0 mm 5 m/S 773 mmHg 63%
    09:00 +11°C° 0 mm 6 m/S 773 mmHg 58%
    10:00 +14°C° 0 mm 7 m/S 773 mmHg 53%
    11:00 +15°C° 0 mm 7 m/S 773 mmHg 51%
    12:00 +16°C° 0 mm 7 m/S 772 mmHg 49%
    13:00 +17°C° 0 mm 7 m/S 772 mmHg 46%
    14:00 +17°C° 0 mm 7 m/S 771 mmHg 48%
    15:00 +17°C° 0 mm 7 m/S 771 mmHg 49%
    16:00 +18°C° 0 mm 7 m/S 771 mmHg 50%
    17:00 +16°C° 0 mm 6 m/S 771 mmHg 54%
    18:00 +15°C° 0 mm 5 m/S 771 mmHg 59%
    19:00 +14°C° 0 mm 4 m/S 771 mmHg 63%
    20:00 +14°C° 0 mm 4 m/S 771 mmHg 66%
    21:00 +13°C° 0 mm 5 m/S 771 mmHg 69%
    22:00 +13°C° 0 mm 5 m/S 771 mmHg 72%
    23:00 +12°C° 0 mm 4 m/S 771 mmHg 74%

    übermorgen, 27 September, Donnerstag

    Zeit Temperatur Niederschläge Wind Luftdruck Luftfeuchtigkeit
    00:00 +12°C° 0 mm 4 m/S 771 mmHg 77%
    01:00 +12°C° 0 mm 4 m/S 771 mmHg 80%
    02:00 +12°C° 0 mm 4 m/S 771 mmHg 81%
    03:00 +11°C° 0 mm 4 m/S 771 mmHg 82%
    04:00 +11°C° 0 mm 4 m/S 771 mmHg 83%
    05:00 +11°C° 0 mm 4 m/S 770 mmHg 83%
    06:00 +11°C° 0 mm 4 m/S 770 mmHg 82%
    07:00 +11°C° 0 mm 4 m/S 770 mmHg 82%
    08:00 +13°C° 0 mm 4 m/S 770 mmHg 76%
    09:00 +15°C° 0 mm 5 m/S 770 mmHg 71%
    10:00 +17°C° 0 mm 5 m/S 770 mmHg 65%
    11:00 +19°C° 0 mm 5 m/S 769 mmHg 62%
    12:00 +20°C° 0 mm 5 m/S 769 mmHg 59%
    13:00 +22°C° 0 mm 5 m/S 768 mmHg 56%
    14:00 +21°C° 0 mm 5 m/S 768 mmHg 56%
    15:00 +21°C° 0 mm 5 m/S 767 mmHg 57%
    16:00 +21°C° 0 mm 4 m/S 767 mmHg 57%
    17:00 +19°C° 0 mm 4 m/S 766 mmHg 61%
    18:00 +18°C° 0 mm 4 m/S 766 mmHg 66%
    19:00 +16°C° 0 mm 3 m/S 766 mmHg 70%
    20:00 +14°C° 0 mm 3 m/S 766 mmHg 72%
    21:00 +14°C° 0 mm 4 m/S 765 mmHg 73%
    22:00 +13°C° 0 mm 4 m/S 765 mmHg 75%
    23:00 +13°C° 0 mm 4 m/S 765 mmHg 78%

    28 September, Freitag

    Zeit Temperatur Niederschläge Wind Luftdruck Luftfeuchtigkeit
    00:00 +13°C° 0 mm 4 m/S 765 mmHg 82%
    01:00 +13°C° 0 mm 3 m/S 765 mmHg 85%
    02:00 +13°C° 0 mm 3 m/S 765 mmHg 85%
    03:00 +12°C° 0 mm 3 m/S 766 mmHg 85%
    04:00 +12°C° 0 mm 3 m/S 766 mmHg 85%
    05:00 +11°C° 0 mm 3 m/S 766 mmHg 84%
    06:00 +11°C° 0 mm 3 m/S 766 mmHg 82%
    07:00 +10°C° 0 mm 2 m/S 767 mmHg 80%
    08:00 +11°C° 0 mm 3 m/S 767 mmHg 72%
    09:00 +13°C° 0 mm 4 m/S 767 mmHg 64%
    10:00 +14°C° 0 mm 4 m/S 768 mmHg 55%
    11:00 +14°C° 0 mm 4 m/S 768 mmHg 55%
    12:00 +14°C° 0 mm 4 m/S 768 mmHg 54%
    13:00 +14°C° 0 mm 4 m/S 768 mmHg 53%
    14:00 +14°C° 0.1 mm 5 m/S 768 mmHg 55%
    15:00 +14°C° 0.1 mm 5 m/S 767 mmHg 56%
    16:00 +14°C° 0.1 mm 5 m/S 767 mmHg 57%
    17:00 +12°C° 0 mm 4 m/S 768 mmHg 63%
    18:00 +11°C° 0 mm 4 m/S 768 mmHg 68%
    19:00 +9°C° 0 mm 3 m/S 768 mmHg 74%
    20:00 +9°C° 0 mm 3 m/S 769 mmHg 77%
    21:00 +8°C° 0 mm 3 m/S 769 mmHg 79%
    22:00 +7°C° 0 mm 2 m/S 769 mmHg 81%
    23:00 +7°C° 0 mm 2 m/S 769 mmHg 82%

    29 September, Samstag

    Zeit Temperatur Niederschläge Wind Luftdruck Luftfeuchtigkeit
    00:00 +7°C° 0 mm 2 m/S 769 mmHg 82%
    01:00 +6°C° 0 mm 2 m/S 770 mmHg 83%
    02:00 +7°C° 0 mm 1 m/S 770 mmHg 82%
    03:00 +7°C° 0 mm 1 m/S 770 mmHg 81%
    04:00 +7°C° 0 mm 1 m/S 770 mmHg 81%
    05:00 +7°C° 0 mm 1 m/S 770 mmHg 80%
    06:00 +7°C° 0 mm 1 m/S 770 mmHg 80%
    07:00 +8°C° 0 mm 1 m/S 770 mmHg 80%
    08:00 +9°C° 0 mm 1 m/S 771 mmHg 73%
    09:00 +11°C° 0 mm 1 m/S 771 mmHg 66%
    10:00 +13°C° 0 mm 2 m/S 771 mmHg 59%
    11:00 +13°C° 0 mm 2 m/S 771 mmHg 56%
    12:00 +14°C° 0 mm 2 m/S 771 mmHg 53%
    13:00 +15°C° 0 mm 2 m/S 771 mmHg 50%
    14:00 +15°C° 0 mm 2 m/S 771 mmHg 50%
    15:00 +15°C° 0 mm 2 m/S 770 mmHg 50%
    16:00 +14°C° 0 mm 2 m/S 770 mmHg 50%
    17:00 +13°C° 0 mm 2 m/S 770 mmHg 57%
    18:00 +11°C° 0 mm 1 m/S 770 mmHg 64%
    19:00 +9°C° 0 mm 1 m/S 770 mmHg 71%
    20:00 +9°C° 0 mm 1 m/S 770 mmHg 74%
    21:00 +8°C° 0 mm 1 m/S 770 mmHg 77%
    22:00 +8°C° 0 mm 1 m/S 770 mmHg 80%
    23:00 +7°C° 0 mm 1 m/S 770 mmHg 81%

    30 September, Sonntag

    Zeit Temperatur Niederschläge Wind Luftdruck Luftfeuchtigkeit
    00:00 +7°C° 0 mm 1 m/S 770 mmHg 82%
    01:00 +7°C° 0 mm 1 m/S 770 mmHg 83%
    02:00 +6°C° 0 mm 1 m/S 769 mmHg 84%
    03:00 +6°C° 0 mm 1 m/S 769 mmHg 85%
    04:00 +6°C° 0 mm 1 m/S 769 mmHg 86%
    05:00 +6°C° 0 mm 1 m/S 769 mmHg 85%
    06:00 +6°C° 0 mm 1 m/S 769 mmHg 85%
    07:00 +6°C° 0 mm 1 m/S 768 mmHg 84%
    08:00 +8°C° 0 mm 1 m/S 768 mmHg 75%
    09:00 +10°C° 0 mm 1 m/S 768 mmHg 67%
    10:00 +13°C° 0 mm 1 m/S 768 mmHg 58%
    11:00 +14°C° 0 mm 1 m/S 768 mmHg 55%
    12:00 +15°C° 0 mm 1 m/S 767 mmHg 52%
    13:00 +16°C° 0 mm 1 m/S 767 mmHg 48%
    14:00 +16°C° 0 mm 1 m/S 766 mmHg 49%
    15:00 +16°C° 0 mm 1 m/S 766 mmHg 49%
    16:00 +16°C° 0 mm 1 m/S 766 mmHg 49%
    17:00 +14°C° 0 mm 1 m/S 766 mmHg 55%
    18:00 +13°C° 0 mm 1 m/S 766 mmHg 61%
    19:00 +12°C° 0 mm 1 m/S 766 mmHg 67%
    20:00 +11°C° 0 mm 1 m/S 766 mmHg 70%
    21:00 +11°C° 0 mm 1 m/S 766 mmHg 73%
    22:00 +11°C° 0 mm 1 m/S 766 mmHg 77%
    23:00 +11°C° 0 mm 1 m/S 766 mmHg 78%
    Mehr zeigen